Evanston, WY

2:35 AM MDT on May 24, 2018 (GMT -0600)
Evanston-Uinta County Burns

Weather History for KEVW - October, 2011

Change the Weather History Date:

Sunday, October 16, 2011

  Actual Average Record
Temperature  
Mean Temperature 55 °F 44 °F  
Max Temperature 66 °F 56 °F 71 °F (2015)
Min Temperature 44 °F 32 °F 21 °F (1999)
Degree Days  
Heating Degree Days 10 21  
Month to date heating degree days 262 290  
Since 1 July heating degree days 466 687  
Cooling Degree Days 0 0  
Month to date cooling degree days 0 0  
Year to date cooling degree days 166 162  
Growing Degree Days 1 (Base 50)    
Moisture  
Dew Point 31 °F    
Average Humidity 40    
Maximum Humidity 53    
Minimum Humidity 27    
Precipitation  
Precipitation 0.00 in 0.04 in 0.30 in (2016)
Month to date precipitation 0.23 0.56  
Year to date precipitation 6.83 9.90  
Sea Level Pressure  
Sea Level Pressure 29.96 in    
Wind  
Wind Speed 10 mph (WSW)    
Max Wind Speed 24 mph    
Max Gust Speed 33 mph    
Visibility 10 miles    
Events Rain    
T = Trace of Precipitation, MM = Missing Value Source: NWS Daily Summary

Daily Weather History Graph

Daily Weather History Graph

Search for Another Location

Airport or City:

Astronomy

Oct. 16, 2011 Rise Set
Actual Time 7:36 AM MDT 6:41 PM MDT
Civil Twilight 7:08 AM MDT 7:09 PM MDT
Nautical Twilight 6:36 AM MDT 7:41 PM MDT
Astronomical Twilight 6:04 AM MDT 8:13 PM MDT
Moon 9:28 PM MDT (10/16) 11:59 AM MDT (10/16)
Length of Visible Light 12h 00m
Length of Day
11h 05m
Waning Gibbous, 82% of the Moon is Illuminated
Oct 16
Waning Gibbous
Oct 19
Last Quarter
Oct 26
New
Nov 2
First Quarter
Nov 10
Full

Hourly Weather History & Observations

Time (MDT) Temp. Windchill Dew Point Humidity Pressure Visibility Wind Dir Wind Speed Gust Speed Precip Events Conditions
12:53 AM 53.1 °F - 28.0 °F 38% 29.89 in 10.0 mi South 8.1 mph - N/A   Mostly Cloudy
1:53 AM 48.9 °F - 30.0 °F 48% 29.91 in 10.0 mi Calm Calm - N/A   Mostly Cloudy
2:53 AM 51.1 °F - 28.9 °F 43% 29.90 in 10.0 mi Calm Calm - N/A   Overcast
3:53 AM 48.0 °F - 28.9 °F 48% 29.91 in 10.0 mi WSW 3.5 mph - N/A   Mostly Cloudy
5:53 AM 48.0 °F - 28.9 °F 48% 29.95 in 10.0 mi South 3.5 mph - N/A   Clear
6:53 AM 45.0 °F 40.6 °F 28.0 °F 52% 29.98 in 10.0 mi South 8.1 mph - N/A   Clear
7:53 AM 46.0 °F 43.1 °F 28.0 °F 50% 29.99 in 10.0 mi South 5.8 mph - N/A   Clear
8:53 AM 48.9 °F - 30.0 °F 48% 29.97 in 10.0 mi SSW 9.2 mph - N/A   Clear
9:53 AM 54.0 °F - 30.9 °F 41% 29.97 in 10.0 mi WSW 11.5 mph - N/A   Clear
10:53 AM 61.0 °F - 30.0 °F 31% 29.94 in 10.0 mi WSW 15.0 mph - N/A   Clear
11:53 AM 63.0 °F - 30.0 °F 29% 29.93 in 10.0 mi WSW 10.4 mph 20.7 mph N/A   Clear
12:53 PM 63.0 °F - 30.9 °F 30% 29.93 in 10.0 mi WSW 16.1 mph 21.9 mph N/A   Clear
1:53 PM 62.1 °F - 28.9 °F 29% 29.94 in 10.0 mi West 18.4 mph 24.2 mph N/A   Partly Cloudy
2:53 PM 61.0 °F - 28.9 °F 30% 29.93 in 10.0 mi West 19.6 mph 29.9 mph N/A   Scattered Clouds
3:53 PM 60.1 °F - 30.9 °F 33% 29.95 in 10.0 mi West 24.2 mph 32.2 mph N/A   Mostly Cloudy
4:53 PM 57.0 °F - 32.0 °F 39% 29.96 in 10.0 mi West 18.4 mph 26.5 mph N/A   Overcast
6:53 PM 51.1 °F - 34.0 °F 52% 29.99 in 10.0 mi West 6.9 mph - N/A   Overcast
7:53 PM 51.1 °F - 33.1 °F 50% 29.98 in 10.0 mi WSW 8.1 mph - N/A   Overcast
8:53 PM 51.1 °F - 32.0 °F 48% 29.94 in 10.0 mi SW 8.1 mph - N/A   Mostly Cloudy
9:53 PM 51.1 °F - 32.0 °F 48% 29.92 in 10.0 mi West 10.4 mph - N/A   Overcast
10:53 PM 46.0 °F 38.5 °F 36.0 °F 68% 29.95 in 10.0 mi North 19.6 mph 24.2 mph 0.00 in Rain Light Rain
11:24 PM 41.0 °F 33.5 °F 39.2 °F 93% 30.15 in 3.0 mi North 13.8 mph - 0.05 in Rain Heavy Rain
11:50 PM 39.2 °F 29.6 °F 37.4 °F 93% 30.16 in 9.0 mi NNW 19.6 mph 27.6 mph 0.06 in Rain Light Rain
11:53 PM 39.0 °F 31.0 °F 37.9 °F 96% 29.99 in 6.0 mi NNW 13.8 mph 27.6 mph 0.07 in Rain Rain